OneWeb SL0161

operational
NORAD ID: 48053 Int'l Des: 2021-025 Owner: ONEWEBN Country: UK Constellation: oneweb
LEOCIRCULARPOLARONEWEB_TYPE

Über OneWeb SL0161

Beschreibung wird geladen...

Live-Position

3D-Globus wird geladen...

Nächste Überflüge

Höhenverlauf

Altitude vs Time

uPlot chart will show altitude changes over time

Zweizeiliger Elementsatz

1 48053U 21025M 25352.24715648 .00000192 00000-0 49127-3 0 9992
2 48053 87.8977 356.1865 0001555 91.0395 269.0912 13.13470344229759
Epoch: 18. Dez. 2025 • Age: 10 hours

Aktueller Status

Höhe 1214.8 km
Geschwindigkeit 7.25 km/s
Subsatellitenpunkt 40.35°N, 149.91°W
Startdatum 25. März 2021
Alter 4.7 years
Typ internet

Technische Details

Klassifizierung Payload
Masse 148.00 kg
Trockenmasse 140.00 kg
Gesamtmasse 148.00 kg
Länge 1.30 m
Durchmesser 1.00 m
Spannweite 5.00 m
Form Trapezoid+2 pan
Hersteller ONEWUS
Bus-Typ ARROW
Phasenstatus In Orbit
Besitzer/Staat ONEWEBN/UK

Große Konstellationen

Loading constellations...